< < Back
Terminal Aerodrome Forecast


Current Version              Previous Versions:   1  2  3  4  5  6  7  8  9  

Terminal Aerodrome Forecast

393
FTUS42 KGSP 230500
TAFAND
TAF
KAND 230529Z 2306/2406 28005KT P6SM FEW250
     FM231200 36003KT P6SM SKC
     FM232300 02005KT P6SM SKC=



Latest METAR

825
SAUS70 KWBC 230800
MTRAND
METAR KAND 230756Z AUTO 30007KT 10SM CLR 15/14 A2980 RMK AO2 SLP084
T01500139


USA.gov is the U.S. government's official web portal to all federal, state and local government web resources and services.